Back to catalog

KUIPER-00231

AliveCommunicationsLEO
NORAD 68580·PAYLOAD·🇺🇸 United States

Launched Apr 4, 2026 from Cape Canaveral Space Force Station

Loading…

Next Passes (next 24 hours)

TLE

FreshSource: CelesTrak SupGP

Epoch: Sep 14, 2026, 23:01 UTC

1 68580C 26072H   26257.95914352  .00004621  00000+0  60491-3 0  2576
2 68580  51.8963 131.2557 0002132 102.2709 211.7751 14.79927254    19

Track KUIPER-00231 in real time with AllMySat

Download on the App Store